Погода в Улане

Россия / Забайкальский край     50°28′33″N   118°55′43″E
темп.,
°C
ветер,
м/с
пор.,
м/с
влажн.,
%
обл.,
%
осадки,
мм/ч
давл.,
гПа
погр.,
м
14 апреля, ср
ср1400:00−3всв00270 0.0 101210
03:00−4юз222822 0.0 101111
06:00−5ююз2226100 0.0 101020
09:000юз4619100 0.0 1007508
12:00+5зсз61042100 0.1 10042009
15:00+7ссз7934100 0.1 10032304
18:00+7ссз7103010 0.0 10042161
21:00+3ссз3641100 0.0 1007118
15 апреля, чт
чт1500:00+1с1148100 0.0 100810
03:000св1151100 0.0 100810
06:00−1св1153100 0.0 100710
09:00+2всв2343100 0.0 1007357
12:00+5всв3336100 0.0 10051420
15:00+5всв2331100 0.0 10052030
18:00+5с4437100 0.1 10051672
21:00+3с3751100 0.2 1008243
16 апреля, пт
пт1600:00+1ссз1155100 0.0 100810
03:00−1ссз22649 0.0 101012
06:00−3с32595 0.0 101126
09:00+2с695197 0.0 10121065
12:00+5ссв6835100 0.2 10112515
15:00+7ссв7921100 0.2 10113642
18:00+7ссв792065 0.0 10122793
21:00+3с22280 0.0 101518
17 апреля, сб
сб1700:00+1зсз22301 0.0 101510
03:000юз11330 0.0 101610
06:00−2ююз22341 0.0 101610
09:00+4юз23230 0.0 1015346
12:00+10зюз56254 0.0 10121416
15:00+13зюз56240 0.0 10091750
18:00+14зюз56251 0.0 10071943
21:00+10юз34365 0.0 100948
18 апреля, вс
вс1800:00+7ю22425 0.0 100914
03:00+4ююв32482 0.0 100920
06:00+3юв32570 0.0 100823
09:00+8ююв35391 0.0 1007348
12:00+15ю45254 0.0 1004988
15:00+18юз352113 0.0 10022619
18:00+19ююз241963 0.0 10012786
21:00+14всв232893 0.0 100341